{"data":{"norad_id":65780,"epoch":"2026-05-25T03:47:41.383968Z","epoch_age_seconds":64473,"freshness":"FRESH","line1":"1 65780U 25217U   26145.15811787  .00001694  00000+0  25117-3 0  9997","line2":"2 65780  51.8965  67.3893 0000872  94.7608 265.3454 14.79938296 36162","mean_motion":14.79938296,"eccentricity":8.72e-5,"inclination_deg":51.8965,"raan_deg":67.3893,"arg_perigee_deg":94.7608,"mean_anomaly_deg":265.3454,"bstar":0.00025117,"rev_number":3616,"period_min":97.301353974828,"perigee_km":628.90784346976,"apogee_km":630.12997866065,"semimajor_km":7007.6559110652,"source":"CELESTRAK","updated_at":"2026-05-25T13:38:05.689476Z"}}